StationID,Date,MaxTemp,MinTemp,Precipitation,Snowfall,SnowDepth
"USR0000AFYK","2005-12-31",-29.92,-41.98,,,
"USR0000AFYK","2008-06-11",60.08,55.04,,,
"USR0000AFYK","2008-06-12",68.00,48.92,,,
"USR0000AFYK","2008-06-13",68.00,46.04,,,
"USR0000AFYK","2008-06-14",75.92,46.04,,,
"USR0000AFYK","2008-06-15",78.08,57.92,,,
"USR0000AFYK","2008-06-16",68.00,55.04,,,
"USR0000AFYK","2008-06-17",64.94,53.06,,,
"USR0000AFYK","2008-06-18",68.00,53.96,,,
"USR0000AFYK","2008-06-19",73.94,55.94,,,
"USR0000AFYK","2008-06-20",80.06,51.98,,,
"USR0000AFYK","2008-06-21",82.04,57.92,,,
"USR0000AFYK","2008-06-22",80.96,60.98,,,
"USR0000AFYK","2008-06-23",84.92,53.96,,,
"USR0000AFYK","2008-06-24",80.96,60.08,,,
"USR0000AFYK","2008-06-25",73.94,55.04,,,
"USR0000AFYK","2008-06-26",82.94,46.94,,,
"USR0000AFYK","2008-06-27",82.04,55.04,,,
"USR0000AFYK","2008-06-28",62.06,53.96,,,
"USR0000AFYK","2008-06-29",66.92,51.98,,,
"USR0000AFYK","2008-06-30",71.96,50.00,,,
"USR0000AFYK","2008-07-01",64.04,53.06,,,
"USR0000AFYK","2008-07-02",77.00,51.98,,,
"USR0000AFYK","2008-07-03",75.92,53.06,,,
"USR0000AFYK","2008-07-04",78.08,57.92,,,
"USR0000AFYK","2008-07-05",75.92,55.04,,,
"USR0000AFYK","2008-07-06",80.06,57.02,,,
"USR0000AFYK","2008-07-07",82.94,53.96,,,
"USR0000AFYK","2008-07-08",75.92,60.08,,,
"USR0000AFYK","2008-07-09",75.92,60.08,,,
"USR0000AFYK","2008-07-10",77.00,55.04,,,
"USR0000AFYK","2008-07-11",71.06,53.96,,,
"USR0000AFYK","2008-07-12",73.94,51.08,,,
"USR0000AFYK","2008-07-13",78.98,51.08,,,
"USR0000AFYK","2008-07-14",71.06,53.06,,,
"USR0000AFYK","2008-07-15",78.08,51.98,,,
"USR0000AFYK","2008-07-16",80.06,57.02,,,
"USR0000AFYK","2008-07-17",71.96,53.96,,,
"USR0000AFYK","2008-07-18",60.08,48.92,,,
"USR0000AFYK","2008-07-19",57.92,48.02,,,
"USR0000AFYK","2008-07-20",62.06,51.08,,,
"USR0000AFYK","2008-07-21",66.02,51.08,,,
"USR0000AFYK","2008-07-22",59.00,44.96,,,
"USR0000AFYK","2008-07-23",68.00,33.98,,,
"USR0000AFYK","2008-07-24",71.06,42.08,,,
"USR0000AFYK","2008-07-25",73.04,44.06,,,
"USR0000AFYK","2008-07-26",71.96,53.06,,,
"USR0000AFYK","2008-07-27",75.02,55.94,,,
"USR0000AFYK","2008-07-28",73.94,53.96,,,
"USR0000AFYK","2008-07-29",66.02,46.94,,,
"USR0000AFYK","2008-07-30",62.96,48.92,,,
"USR0000AFYK","2008-07-31",60.98,48.02,,,
"USR0000AFYK","2008-08-01",60.08,46.94,,,
"USR0000AFYK","2008-08-02",60.08,50.00,,,
"USR0000AFYK","2008-08-03",59.00,44.06,,,
"USR0000AFYK","2008-08-04",59.00,44.06,,,
"USR0000AFYK","2008-08-05",59.00,46.04,,,
"USR0000AFYK","2008-08-06",60.98,41.00,,,
"USR0000AFYK","2008-08-07",57.92,41.00,,,
"USR0000AFYK","2008-08-08",57.02,44.96,,,
"USR0000AFYK","2008-08-09",51.08,44.06,,,
"USR0000AFYK","2008-08-10",48.92,42.08,,,
"USR0000AFYK","2008-08-11",64.94,37.94,,,
"USR0000AFYK","2008-08-12",69.98,35.06,,,
"USR0000AFYK","2008-08-13",64.94,48.92,,,
"USR0000AFYK","2008-08-14",62.06,51.08,,,
"USR0000AFYK","2008-08-15",66.92,51.08,,,
"USR0000AFYK","2008-08-16",73.04,48.92,,,
"USR0000AFYK","2008-08-17",68.00,44.06,,,
"USR0000AFYK","2008-08-18",59.00,41.00,,,
"USR0000AFYK","2008-08-19",60.08,35.96,,,
"USR0000AFYK","2008-08-20",59.00,35.06,,,
"USR0000AFYK","2008-08-21",62.06,35.06,,,
"USR0000AFYK","2008-08-22",66.02,35.96,,,
"USR0000AFYK","2008-08-23",60.98,39.02,,,
"USR0000AFYK","2008-08-24",60.98,37.94,,,
"USR0000AFYK","2008-08-25",62.06,35.96,,,
"USR0000AFYK","2008-08-26",69.08,37.94,,,
"USR0000AFYK","2008-08-27",60.98,35.96,,,
"USR0000AFYK","2008-08-28",62.96,35.06,,,
"USR0000AFYK","2008-08-29",64.04,30.92,,,
"USR0000AFYK","2008-08-30",66.02,23.00,,,
"USR0000AFYK","2008-08-31",66.02,26.06,,,
"USR0000AFYK","2008-09-01",68.00,37.94,,,
"USR0000AFYK","2008-09-02",66.92,35.96,,,
"USR0000AFYK","2008-09-03",71.06,37.04,,,
"USR0000AFYK","2008-09-04",68.00,42.98,,,
"USR0000AFYK","2008-09-05",71.06,37.94,,,
"USR0000AFYK","2008-09-06",68.00,35.96,,,
"USR0000AFYK","2008-09-07",60.98,39.02,,,
"USR0000AFYK","2008-09-08",55.04,28.94,,,
"USR0000AFYK","2008-09-09",57.02,28.04,,,
"USR0000AFYK","2008-09-10",48.92,35.96,,,
"USR0000AFYK","2008-09-11",57.02,28.04,,,
"USR0000AFYK","2008-09-12",53.96,28.94,,,
"USR0000AFYK","2008-09-13",48.92,24.98,,,
"USR0000AFYK","2008-09-14",46.04,28.94,,,
"USR0000AFYK","2008-09-15",48.02,23.00,,,
"USR0000AFYK","2008-09-16",46.94,23.00,,,
"USR0000AFYK","2008-09-17",42.98,35.06,,,
"USR0000AFYK","2008-09-18",48.02,35.96,,,
"USR0000AFYK","2008-09-19",53.96,33.08,,,
"USR0000AFYK","2008-09-20",48.92,39.92,,,
"USR0000AFYK","2008-09-21",51.08,35.96,,,
"USR0000AFYK","2008-09-22",51.08,26.96,,,
"USR0000AFYK","2008-09-23",51.08,26.96,,,
"USR0000AFYK","2008-09-24",46.94,30.02,,,
"USR0000AFYK","2008-09-25",42.98,26.06,,,
"USR0000AFYK","2008-09-26",41.00,17.06,,,
"USR0000AFYK","2008-09-27",33.98,15.08,,,
"USR0000AFYK","2008-09-28",35.96,19.04,,,
"USR0000AFYK","2008-09-29",37.04,12.02,,,
"USR0000AFYK","2008-09-30",35.06,21.02,,,
"USR0000AFYK","2008-10-01",35.96,8.96,,,
"USR0000AFYK","2008-10-02",30.92,10.04,,,
"USR0000AFYK","2008-10-03",33.08,24.98,,,
"USR0000AFYK","2008-10-04",33.08,-0.04,,,
"USR0000AFYK","2008-10-05",33.98,21.92,,,
"USR0000AFYK","2008-10-06",33.98,26.06,,,
"USR0000AFYK","2008-10-07",35.06,21.02,,,
"USR0000AFYK","2008-10-08",28.94,19.94,,,
"USR0000AFYK","2008-10-09",26.06,17.96,,,
"USR0000AFYK","2008-10-10",39.02,21.02,,,
"USR0000AFYK","2008-10-11",37.94,15.98,,,
"USR0000AFYK","2008-10-12",30.02,21.02,,,
"USR0000AFYK","2008-10-13",21.02,15.98,,,
"USR0000AFYK","2008-10-14",21.92,14.00,,,
"USR0000AFYK","2008-10-15",21.92,-14.08,,,
"USR0000AFYK","2008-10-16",8.06,-16.96,,,
"USR0000AFYK","2008-10-17",6.08,-18.94,,,
"USR0000AFYK","2008-10-18",6.08,-18.94,,,
"USR0000AFYK","2008-10-19",6.98,-20.92,,,
"USR0000AFYK","2008-10-20",14.00,6.08,,,
"USR0000AFYK","2008-10-21",17.06,-7.96,,,
"USR0000AFYK","2008-10-22",15.98,6.98,,,
"USR0000AFYK","2008-10-23",12.92,-2.92,,,
"USR0000AFYK","2008-10-24",8.06,1.04,,,
"USR0000AFYK","2008-10-25",8.96,-14.08,,,
"USR0000AFYK","2008-10-26",-2.92,-29.92,,,
"USR0000AFYK","2008-10-27",-9.04,-29.92,,,
"USR0000AFYK","2008-10-28",-0.04,-23.08,,,
"USR0000AFYK","2008-10-29",-7.06,-25.96,,,
"USR0000AFYK","2008-10-30",-4.00,-25.96,,,
"USR0000AFYK","2008-10-31",-0.04,-16.06,,,
"USR0000AFYK","2008-11-01",-5.98,-27.04,,,
"USR0000AFYK","2008-11-02",14.00,-27.94,,,
"USR0000AFYK","2008-11-03",17.96,10.04,,,
"USR0000AFYK","2008-11-04",19.04,12.92,,,
"USR0000AFYK","2008-11-05",19.04,15.08,,,
"USR0000AFYK","2008-11-06",17.96,5.00,,,
"USR0000AFYK","2008-11-07",14.00,-5.08,,,
"USR0000AFYK","2008-11-08",6.08,-18.94,,,
"USR0000AFYK","2008-11-09",3.02,-23.08,,,
"USR0000AFYK","2008-11-10",10.04,-20.92,,,
"USR0000AFYK","2008-11-11",6.08,-2.02,,,
"USR0000AFYK","2008-11-12",8.96,3.02,,,
"USR0000AFYK","2008-11-13",6.08,-9.94,,,
"USR0000AFYK","2008-11-14",1.04,-14.98,,,
"USR0000AFYK","2008-11-15",-0.04,-14.98,,,
"USR0000AFYK","2008-11-16",-4.00,-14.08,,,
"USR0000AFYK","2008-11-17",1.04,-11.92,,,
"USR0000AFYK","2008-11-18",-0.04,-27.04,,,
"USR0000AFYK","2008-11-19",-7.06,-23.98,,,
"USR0000AFYK","2008-11-20",3.02,-25.06,,,
"USR0000AFYK","2008-11-21",5.00,3.02,,,
"USR0000AFYK","2008-11-22",1.94,-5.08,,,
"USR0000AFYK","2008-11-23",1.94,-20.02,,,
"USR0000AFYK","2008-11-24",-0.94,-16.96,,,
"USR0000AFYK","2008-11-25",-5.08,-20.92,,,
"USR0000AFYK","2008-11-26",1.94,-20.92,,,
"USR0000AFYK","2008-11-27",3.02,-23.98,,,
"USR0000AFYK","2008-11-28",5.00,-7.06,,,
"USR0000AFYK","2008-11-29",6.98,-2.02,,,
"USR0000AFYK","2008-11-30",10.94,-0.94,,,
"USR0000AFYK","2008-12-01",1.94,-20.92,,,
"USR0000AFYK","2008-12-02",-9.04,-36.94,,,
"USR0000AFYK","2008-12-03",-14.98,-36.94,,,
"USR0000AFYK","2008-12-04",1.94,-14.08,,,
"USR0000AFYK","2008-12-05",8.06,-0.94,,,
"USR0000AFYK","2008-12-06",6.08,-2.92,,,
"USR0000AFYK","2008-12-07",-5.08,-38.92,,,
"USR0000AFYK","2008-12-08",-7.96,-43.06,,,
"USR0000AFYK","2008-12-09",-2.92,-7.06,,,
"USR0000AFYK","2008-12-10",-7.06,-14.08,,,
"USR0000AFYK","2008-12-11",-5.98,-32.98,,,
"USR0000AFYK","2008-12-12",-23.08,-36.04,,,
"USR0000AFYK","2008-12-13",-16.06,-31.00,,,
"USR0000AFYK","2008-12-14",-9.94,-14.98,,,
"USR0000AFYK","2008-12-15",15.98,-18.04,,,
"USR0000AFYK","2008-12-16",15.08,-22.00,,,
"USR0000AFYK","2008-12-17",-11.92,-20.92,,,
"USR0000AFYK","2008-12-18",-5.08,-25.06,,,
"USR0000AFYK","2008-12-19",-7.96,-16.06,,,
"USR0000AFYK","2008-12-20",-5.08,-20.92,,,
"USR0000AFYK","2008-12-21",-20.02,-25.06,,,
"USR0000AFYK","2008-12-22",-11.02,-25.06,,,
"USR0000AFYK","2008-12-23",-2.92,-11.02,,,
"USR0000AFYK","2008-12-24",-9.94,-22.00,,,
"USR0000AFYK","2008-12-25",-7.96,-18.04,,,
"USR0000AFYK","2008-12-26",-13.00,-36.04,,,
"USR0000AFYK","2008-12-27",-2.92,-36.04,,,
"USR0000AFYK","2008-12-28",-36.94,-43.96,,,
"USR0000AFYK","2008-12-29",-16.06,-45.04,,,
"USR0000AFYK","2008-12-30",-47.02,-54.04,,,
"USR0000AFYK","2008-12-31",-52.96,-54.94,,,
"USR0000AFYK","2009-01-01",-43.96,-56.02,,,
"USR0000AFYK","2009-01-02",-49.00,-59.08,,,
"USR0000AFYK","2009-01-03",-56.92,-59.08,,,
"USR0000AFYK","2009-01-04",-43.96,-59.08,,,
"USR0000AFYK","2009-01-05",-41.98,-52.96,,,
"USR0000AFYK","2009-01-06",-50.08,-54.94,,,
"USR0000AFYK","2009-01-07",-45.94,-56.02,,,
"USR0000AFYK","2009-01-08",-50.08,-56.02,,,
"USR0000AFYK","2009-01-09",-54.94,-58.00,,,
"USR0000AFYK","2009-01-10",-52.96,-56.92,,,
"USR0000AFYK","2009-01-11",-54.04,-58.00,,,
"USR0000AFYK","2009-01-12",-40.00,-54.94,,,
"USR0000AFYK","2009-01-13",-20.92,-38.02,,,
"USR0000AFYK","2009-01-14",6.08,-20.92,,,
"USR0000AFYK","2009-01-15",10.04,1.04,,,
"USR0000AFYK","2009-01-16",39.02,3.92,,,
"USR0000AFYK","2009-01-17",42.98,10.04,,,
"USR0000AFYK","2009-01-18",26.96,6.98,,,
"USR0000AFYK","2009-01-19",23.00,15.98,,,
"USR0000AFYK","2009-01-20",15.08,-2.02,,,
"USR0000AFYK","2009-01-21",1.94,-29.02,,,
"USR0000AFYK","2009-01-22",-14.08,-27.94,,,
"USR0000AFYK","2009-01-23",-5.08,-18.94,,,
"USR0000AFYK","2009-01-24",-5.98,-20.92,,,
"USR0000AFYK","2009-01-25",-0.94,-16.06,,,
"USR0000AFYK","2009-01-26",-0.94,-5.98,,,
"USR0000AFYK","2009-01-27",-0.94,-14.98,,,
"USR0000AFYK","2009-01-28",-16.06,-34.96,,,
"USR0000AFYK","2009-01-29",-27.04,-50.08,,,
"USR0000AFYK","2009-01-30",-14.98,-27.94,,,
"USR0000AFYK","2009-01-31",-16.06,-43.06,,,
"USR0000AFYK","2009-02-01",-22.00,-43.96,,,
"USR0000AFYK","2009-02-02",-18.94,-45.94,,,
"USR0000AFYK","2009-02-03",-22.00,-49.00,,,
"USR0000AFYK","2009-02-04",-18.94,-43.96,,,
"USR0000AFYK","2009-02-05",-18.04,-43.06,,,
"USR0000AFYK","2009-02-06",-13.00,-32.08,,,
"USR0000AFYK","2009-02-07",-7.96,-13.00,,,
"USR0000AFYK","2009-02-08",-2.92,-22.00,,,
"USR0000AFYK","2009-02-09",-9.04,-25.06,,,
"USR0000AFYK","2009-02-10",-7.96,-45.04,,,
"USR0000AFYK","2009-02-11",-14.08,-45.04,,,
"USR0000AFYK","2009-02-12",-5.98,-18.04,,,
"USR0000AFYK","2009-02-13",-2.02,-11.92,,,
"USR0000AFYK","2009-02-14",10.04,-5.08,,,
"USR0000AFYK","2009-02-15",12.92,-2.92,,,
"USR0000AFYK","2009-02-16",15.08,-5.08,,,
"USR0000AFYK","2009-02-17",12.92,-11.02,,,
"USR0000AFYK","2009-02-18",-4.00,-34.06,,,
"USR0000AFYK","2009-02-19",12.92,-5.98,,,
"USR0000AFYK","2009-02-20",26.96,-7.06,,,
"USR0000AFYK","2009-02-21",12.02,-16.06,,,
"USR0000AFYK","2009-02-22",8.96,-14.98,,,
"USR0000AFYK","2009-02-23",14.00,-0.94,,,
"USR0000AFYK","2009-02-24",12.92,-5.98,,,
"USR0000AFYK","2009-02-25",19.04,6.08,,,
"USR0000AFYK","2009-02-26",19.04,6.08,,,
"USR0000AFYK","2009-02-27",6.08,-13.00,,,
"USR0000AFYK","2009-02-28",12.02,-0.94,,,
"USR0000AFYK","2009-03-01",10.94,-7.06,,,
"USR0000AFYK","2009-03-02",1.04,-32.98,,,
"USR0000AFYK","2009-03-03",-2.02,-27.04,,,
"USR0000AFYK","2009-03-04",1.04,-32.98,,,
"USR0000AFYK","2009-03-05",5.00,-7.06,,,
"USR0000AFYK","2009-03-06",14.00,-0.04,,,
"USR0000AFYK","2009-03-07",6.08,-27.94,,,
"USR0000AFYK","2009-03-08",1.94,-25.06,,,
"USR0000AFYK","2009-03-09",3.02,-18.04,,,
"USR0000AFYK","2009-03-10",12.92,-23.08,,,
"USR0000AFYK","2009-03-11",12.02,-16.96,,,
"USR0000AFYK","2009-03-12",8.06,-7.06,,,
"USR0000AFYK","2009-03-13",1.04,-16.06,,,
"USR0000AFYK","2009-03-14",-5.98,-23.08,,,
"USR0000AFYK","2009-03-15",-11.92,-23.98,,,
"USR0000AFYK","2009-03-16",-11.92,-22.00,,,
"USR0000AFYK","2009-03-17",-7.96,-20.92,,,
"USR0000AFYK","2009-03-18",-7.06,-14.98,,,
"USR0000AFYK","2009-03-19",-2.02,-16.06,,,
"USR0000AFYK","2009-03-20",-0.04,-14.98,,,
"USR0000AFYK","2009-03-21",3.02,-13.00,,,
"USR0000AFYK","2009-03-22",8.06,-9.94,,,
"USR0000AFYK","2009-03-23",6.98,-9.94,,,
"USR0000AFYK","2009-03-24",6.08,-7.96,,,
"USR0000AFYK","2009-03-25",12.92,-7.06,,,
"USR0000AFYK","2009-03-26",14.00,-5.08,,,
"USR0000AFYK","2009-03-27",10.04,1.04,,,
"USR0000AFYK","2009-03-28",10.94,-7.96,,,
"USR0000AFYK","2009-03-29",17.06,-2.02,,,
"USR0000AFYK","2009-03-30",26.06,-5.98,,,
"USR0000AFYK","2009-03-31",35.06,-9.94,,,
"USR0000AFYK","2009-04-01",26.96,-16.96,,,
"USR0000AFYK","2009-04-02",21.92,-0.94,,,
"USR0000AFYK","2009-04-03",24.08,-0.94,,,
"USR0000AFYK","2009-04-04",26.96,-9.04,,,
"USR0000AFYK","2009-04-05",21.92,-7.96,,,
"USR0000AFYK","2009-04-06",30.92,-4.00,,,
"USR0000AFYK","2009-04-07",32.00,-11.02,,,
"USR0000AFYK","2009-04-08",37.94,-5.08,,,
"USR0000AFYK","2009-04-09",42.08,-9.04,,,
"USR0000AFYK","2009-04-10",42.98,12.92,,,
"USR0000AFYK","2009-04-11",30.92,19.94,,,
"USR0000AFYK","2009-04-12",39.02,10.94,,,
"USR0000AFYK","2009-04-13",39.02,14.00,,,
"USR0000AFYK","2009-04-14",44.96,23.00,,,
"USR0000AFYK","2009-04-15",42.98,17.96,,,
"USR0000AFYK","2009-04-16",28.04,8.06,,,
"USR0000AFYK","2009-04-17",30.92,1.94,,,
"USR0000AFYK","2009-04-18",33.08,14.00,,,
"USR0000AFYK","2009-04-19",35.96,15.98,,,
"USR0000AFYK","2009-04-20",42.98,12.92,,,
"USR0000AFYK","2009-04-21",48.92,8.06,,,
"USR0000AFYK","2009-04-22",46.94,8.96,,,
"USR0000AFYK","2009-04-23",44.96,24.98,,,
"USR0000AFYK","2009-04-24",42.08,32.00,,,
"USR0000AFYK","2009-04-25",48.92,26.06,,,
"USR0000AFYK","2009-04-26",62.96,24.98,,,
"USR0000AFYK","2009-04-27",66.92,30.92,,,
"USR0000AFYK","2009-04-28",59.00,35.96,,,
"USR0000AFYK","2009-04-29",66.92,33.08,,,
"USR0000AFYK","2009-04-30",71.96,28.94,,,
"USR0000AFYK","2009-05-01",73.94,28.94,,,
"USR0000AFYK","2009-05-02",64.94,39.02,,,
"USR0000AFYK","2009-05-03",50.00,33.98,,,
"USR0000AFYK","2009-05-04",51.08,28.04,,,
"USR0000AFYK","2009-05-05",51.08,32.00,,,
"USR0000AFYK","2009-05-06",46.04,28.94,,,
"USR0000AFYK","2009-05-07",50.00,24.08,,,
"USR0000AFYK","2009-05-08",51.08,32.00,,,
"USR0000AFYK","2009-05-09",48.92,37.04,,,
"USR0000AFYK","2009-05-10",50.00,35.06,,,
"USR0000AFYK","2009-05-11",48.02,35.06,,,
"USR0000AFYK","2009-05-12",53.06,30.92,,,
"USR0000AFYK","2009-05-13",51.08,28.04,,,
"USR0000AFYK","2009-05-14",50.00,28.94,,,
"USR0000AFYK","2009-05-15",46.04,28.04,,,
"USR0000AFYK","2009-05-16",51.08,26.96,,,
"USR0000AFYK","2009-05-17",60.98,28.94,,,
"USR0000AFYK","2009-05-18",71.06,28.04,,,
"USR0000AFYK","2009-05-19",75.92,41.00,,,
"USR0000AFYK","2009-05-20",75.02,46.94,,,
"USR0000AFYK","2009-05-21",75.02,46.94,,,
"USR0000AFYK","2009-05-22",73.04,48.92,,,
"USR0000AFYK","2009-05-23",68.00,46.04,,,
"USR0000AFYK","2009-05-24",69.08,44.06,,,
"USR0000AFYK","2009-05-25",75.02,44.96,,,
"USR0000AFYK","2009-05-26",78.08,37.04,,,
"USR0000AFYK","2009-05-27",71.06,44.06,,,
"USR0000AFYK","2009-05-28",62.96,44.96,,,
"USR0000AFYK","2009-05-29",59.00,46.04,,,
"USR0000AFYK","2009-05-30",60.08,44.96,,,
"USR0000AFYK","2009-05-31",60.08,37.94,,,
"USR0000AFYK","2009-06-01",71.06,46.04,,,
"USR0000AFYK","2009-06-02",78.98,42.08,,,
"USR0000AFYK","2009-06-03",78.08,53.96,,,
"USR0000AFYK","2009-06-04",82.94,48.02,,,
"USR0000AFYK","2009-06-05",80.96,57.92,,,
"USR0000AFYK","2009-06-06",69.98,51.98,,,
"USR0000AFYK","2009-06-07",69.08,48.02,,,
"USR0000AFYK","2009-06-08",78.08,42.08,,,
"USR0000AFYK","2009-06-09",75.92,53.06,,,
"USR0000AFYK","2009-06-10",69.98,51.08,,,
"USR0000AFYK","2009-06-11",69.08,42.08,,,
"USR0000AFYK","2009-06-12",71.06,46.94,,,
"USR0000AFYK","2009-06-13",69.98,48.02,,,
"USR0000AFYK","2009-06-14",69.08,53.06,,,
"USR0000AFYK","2009-06-15",69.08,46.94,,,
"USR0000AFYK","2009-06-16",71.06,42.98,,,
"USR0000AFYK","2009-06-17",71.06,48.92,,,
"USR0000AFYK","2009-06-18",69.08,50.00,,,
"USR0000AFYK","2009-06-19",69.98,48.92,,,
"USR0000AFYK","2009-06-20",71.96,46.94,,,
"USR0000AFYK","2009-06-21",62.96,53.06,,,
"USR0000AFYK","2009-06-22",77.00,50.00,,,
"USR0000AFYK","2009-06-23",77.00,55.94,,,
"USR0000AFYK","2009-06-24",66.02,51.08,,,
"USR0000AFYK","2009-06-25",62.96,48.92,,,
"USR0000AFYK","2009-06-26",66.92,48.02,,,
"USR0000AFYK","2009-06-27",66.92,48.92,,,
"USR0000AFYK","2009-06-28",71.06,46.94,,,
"USR0000AFYK","2009-06-29",71.96,50.00,,,
"USR0000AFYK","2009-06-30",73.94,48.92,,,
"USR0000AFYK","2009-07-01",78.08,46.94,,,
"USR0000AFYK","2009-07-02",82.04,48.02,,,
"USR0000AFYK","2009-07-03",82.94,53.06,,,
"USR0000AFYK","2009-07-04",75.92,48.92,,,
"USR0000AFYK","2009-07-05",80.96,51.98,,,
"USR0000AFYK","2009-07-06",80.96,53.96,,,
"USR0000AFYK","2009-07-07",84.02,59.00,,,
"USR0000AFYK","2009-07-08",66.92,55.04,,,
"USR0000AFYK","2009-07-09",71.96,53.96,,,
"USR0000AFYK","2009-07-10",75.02,51.08,,,
"USR0000AFYK","2009-07-11",71.96,55.94,,,
"USR0000AFYK","2009-07-12",82.94,51.08,,,
"USR0000AFYK","2009-07-13",87.08,51.08,,,
"USR0000AFYK","2009-07-14",87.98,51.98,,,
"USR0000AFYK","2009-07-15",69.08,44.06,,,
"USR0000AFYK","2009-07-16",75.02,37.04,,,
"USR0000AFYK","2009-07-17",80.96,41.00,,,
"USR0000AFYK","2009-07-18",82.04,48.92,,,
"USR0000AFYK","2009-07-19",82.94,53.06,,,
"USR0000AFYK","2009-07-20",82.94,51.98,,,
"USR0000AFYK","2009-07-21",80.96,48.92,,,
"USR0000AFYK","2009-07-22",73.94,57.02,,,
"USR0000AFYK","2009-07-23",75.92,48.92,,,
"USR0000AFYK","2009-07-24",73.04,48.02,,,
"USR0000AFYK","2009-07-25",73.04,48.92,,,
"USR0000AFYK","2009-07-26",82.04,51.08,,,
"USR0000AFYK","2009-07-27",82.94,53.96,,,
"USR0000AFYK","2009-07-28",84.92,62.06,,,
"USR0000AFYK","2009-07-29",89.06,55.04,,,
"USR0000AFYK","2009-07-30",80.96,53.06,,,
"USR0000AFYK","2009-07-31",77.00,51.08,,,
"USR0000AFYK","2009-08-01",66.02,50.00,,,
"USR0000AFYK","2009-08-02",71.06,44.96,,,
"USR0000AFYK","2009-08-03",69.08,42.08,,,
"USR0000AFYK","2009-08-04",78.98,42.08,,,
"USR0000AFYK","2009-08-05",73.94,48.92,,,
"USR0000AFYK","2009-08-06",75.02,48.92,,,
"USR0000AFYK","2009-08-07",73.94,51.98,,,
"USR0000AFYK","2009-08-08",64.94,46.94,,,
"USR0000AFYK","2009-08-09",57.92,46.94,,,
"USR0000AFYK","2009-08-10",53.06,41.00,,,
"USR0000AFYK","2009-08-11",55.94,33.98,,,
"USR0000AFYK","2009-08-12",62.06,32.00,,,
"USR0000AFYK","2009-08-13",53.06,42.98,,,
"USR0000AFYK","2009-08-14",60.98,46.94,,,
"USR0000AFYK","2009-08-15",64.04,48.92,,,
"USR0000AFYK","2009-08-16",64.04,46.94,,,
"USR0000AFYK","2009-08-17",66.02,37.94,,,
"USR0000AFYK","2009-08-18",62.06,48.02,,,
"USR0000AFYK","2009-08-19",55.94,42.08,,,
"USR0000AFYK","2009-08-20",62.96,35.06,,,
"USR0000AFYK","2009-08-21",68.00,33.08,,,
"USR0000AFYK","2009-08-22",66.92,39.92,,,
"USR0000AFYK","2009-08-23",71.06,33.98,,,
"USR0000AFYK","2009-08-24",60.08,46.04,,,
"USR0000AFYK","2009-08-25",53.96,46.04,,,
"USR0000AFYK","2009-08-26",60.98,39.92,,,
"USR0000AFYK","2009-08-27",64.94,44.96,,,
"USR0000AFYK","2009-08-28",57.92,50.00,,,
"USR0000AFYK","2009-08-29",60.08,44.96,,,
"USR0000AFYK","2009-08-30",57.02,42.08,,,
"USR0000AFYK","2009-08-31",51.08,37.04,,,
"USR0000AFYK","2009-09-01",60.08,37.04,,,
"USR0000AFYK","2009-09-02",64.94,35.06,,,
"USR0000AFYK","2009-09-03",66.92,42.08,,,
"USR0000AFYK","2009-09-04",71.06,37.94,,,
"USR0000AFYK","2009-09-05",73.94,35.06,,,
"USR0000AFYK","2009-09-06",71.96,35.96,,,
"USR0000AFYK","2009-09-07",66.02,37.94,,,
"USR0000AFYK","2009-09-08",62.96,41.00,,,
"USR0000AFYK","2009-09-09",60.98,41.00,,,
"USR0000AFYK","2009-09-10",62.96,42.08,,,
"USR0000AFYK","2009-09-11",62.06,46.04,,,
"USR0000AFYK","2009-09-12",64.04,44.06,,,
"USR0000AFYK","2009-09-13",62.96,44.06,,,
"USR0000AFYK","2009-09-14",62.96,41.00,,,
"USR0000AFYK","2009-09-15",64.04,35.06,,,
"USR0000AFYK","2009-09-16",60.98,42.98,,,
"USR0000AFYK","2009-09-17",51.98,48.02,,,
"USR0000AFYK","2009-09-18",50.00,39.92,,,
"USR0000AFYK","2009-09-19",41.00,32.00,,,
"USR0000AFYK","2009-09-20",39.92,30.92,,,
"USR0000AFYK","2009-09-21",35.96,30.02,,,
"USR0000AFYK","2009-09-22",39.92,35.06,,,
"USR0000AFYK","2009-09-23",35.96,32.00,,,
"USR0000AFYK","2009-09-24",44.06,21.92,,,
"USR0000AFYK","2009-09-25",35.06,21.92,,,
"USR0000AFYK","2009-09-26",35.06,28.94,,,
"USR0000AFYK","2009-09-27",35.06,30.02,,,
"USR0000AFYK","2009-09-28",37.94,12.02,,,
"USR0000AFYK","2009-09-29",32.00,12.92,,,
"USR0000AFYK","2009-09-30",30.92,24.08,,,
"USR0000AFYK","2009-10-01",37.94,15.98,,,
"USR0000AFYK","2009-10-02",33.08,15.08,,,
"USR0000AFYK","2009-10-03",30.02,21.92,,,
"USR0000AFYK","2009-10-04",35.06,17.06,,,
"USR0000AFYK","2009-10-05",35.06,21.02,,,
"USR0000AFYK","2009-10-06",35.06,24.08,,,
"USR0000AFYK","2009-10-07",32.00,17.96,,,
"USR0000AFYK","2009-10-08",30.02,21.02,,,
"USR0000AFYK","2009-10-09",30.92,21.92,,,
"USR0000AFYK","2009-10-10",39.02,21.92,,,
"USR0000AFYK","2009-10-11",42.98,21.92,,,
"USR0000AFYK","2009-10-12",44.96,21.02,,,
"USR0000AFYK","2009-10-13",39.92,17.06,,,
"USR0000AFYK","2009-10-14",35.96,17.06,,,
"USR0000AFYK","2009-10-15",24.08,17.06,,,
"USR0000AFYK","2009-10-16",24.08,12.92,,,
"USR0000AFYK","2009-10-17",30.92,5.00,,,
"USR0000AFYK","2009-10-18",24.08,1.04,,,
"USR0000AFYK","2009-10-19",21.92,-0.94,,,
"USR0000AFYK","2009-10-20",23.00,15.98,,,
"USR0000AFYK","2009-10-21",21.02,19.04,,,
"USR0000AFYK","2009-10-22",26.06,19.04,,,
"USR0000AFYK","2009-10-23",28.94,14.00,,,
"USR0000AFYK","2009-10-24",28.04,1.94,,,
"USR0000AFYK","2009-10-25",19.04,1.04,,,
"USR0000AFYK","2009-10-26",23.00,10.04,,,
"USR0000AFYK","2009-10-27",23.00,8.06,,,
"USR0000AFYK","2009-10-28",21.02,15.98,,,
"USR0000AFYK","2009-10-29",24.98,14.00,,,
"USR0000AFYK","2009-10-30",19.94,10.04,,,
"USR0000AFYK","2009-10-31",21.02,8.96,,,
"USR0000AFYK","2009-11-01",8.96,-5.98,,,
"USR0000AFYK","2009-11-02",6.08,-4.00,,,
"USR0000AFYK","2009-11-03",1.04,-9.04,,,
"USR0000AFYK","2009-11-04",8.06,-9.04,,,
"USR0000AFYK","2009-11-05",12.92,5.00,,,
"USR0000AFYK","2009-11-06",12.92,5.00,,,
"USR0000AFYK","2009-11-07",8.96,-7.96,,,
"USR0000AFYK","2009-11-08",1.04,-25.96,,,
"USR0000AFYK","2009-11-09",-9.04,-27.04,,,
"USR0000AFYK","2009-11-10",-7.06,-25.96,,,
"USR0000AFYK","2009-11-11",1.94,-7.06,,,
"USR0000AFYK","2009-11-12",1.94,-16.06,,,
"USR0000AFYK","2009-11-13",-0.04,-5.98,,,
"USR0000AFYK","2009-11-14",6.08,-0.94,,,
"USR0000AFYK","2009-11-15",1.94,-31.00,,,
"USR0000AFYK","2009-11-16",-27.04,-38.02,,,
"USR0000AFYK","2009-11-17",-18.94,-40.00,,,
"USR0000AFYK","2009-11-18",-14.08,-25.96,,,
"USR0000AFYK","2009-11-19",-11.02,-14.08,,,
"USR0000AFYK","2009-11-20",-11.92,-41.08,,,
"USR0000AFYK","2009-11-21",-36.04,-43.06,,,
"USR0000AFYK","2009-11-22",-20.92,-41.08,,,
"USR0000AFYK","2009-11-23",-9.94,-25.96,,,
"USR0000AFYK","2009-11-24",-2.02,-14.98,,,
"USR0000AFYK","2009-11-25",-0.94,-20.02,,,
"USR0000AFYK","2009-11-26",-5.08,-20.92,,,
"USR0000AFYK","2009-11-27",15.08,-13.00,,,
"USR0000AFYK","2009-11-28",1.94,-11.92,,,
"USR0000AFYK","2009-11-29",-13.00,-20.02,,,
"USR0000AFYK","2009-11-30",6.98,-18.04,,,
"USR0000AFYK","2009-12-01",21.92,8.06,,,
"USR0000AFYK","2009-12-02",24.08,-0.94,,,
"USR0000AFYK","2009-12-03",17.06,-5.08,,,
"USR0000AFYK","2009-12-04",8.06,-16.96,,,
"USR0000AFYK","2009-12-05",-0.04,-9.04,,,
"USR0000AFYK","2009-12-06",12.92,-2.92,,,
"USR0000AFYK","2009-12-07",12.92,6.98,,,
"USR0000AFYK","2009-12-08",10.94,1.94,,,
"USR0000AFYK","2009-12-09",3.02,-2.02,,,
"USR0000AFYK","2009-12-10",-2.92,-14.08,,,
"USR0000AFYK","2009-12-11",-14.08,-18.94,,,
"USR0000AFYK","2009-12-12",-11.92,-16.96,,,
"USR0000AFYK","2009-12-13",-13.00,-18.04,,,
"USR0000AFYK","2009-12-14",-5.08,-13.00,,,
"USR0000AFYK","2009-12-15",-5.08,-25.06,,,